Powrót do katalogu

NAVSTAR 59

USA 192

AktywnyNawigacjaHEO
NORAD 29601·PAYLOAD·🇺🇸 United States

Wystrzelony Nov 17, 2006 z Cape Canaveral Space Force Station

Loading…

Następne Przeloty (najbliższe 24 godziny)

TLE

ŚwieżeSource: CelesTrak SupGP

Epoka: Sep 16, 2026, 16:44 UTC

1 29601C 06052A   26259.69756944  .00000000  00000+0  00000+0 0  2592
2 29601  54.9232 210.3815 0085545  91.0964 297.3622  2.00563255    11

Śledź NAVSTAR 59 w czasie rzeczywistym z AllMySat

Download on the App Store